TimePST,TemperatureF,Dew PointF,Humidity,Sea Level PressureIn,VisibilityMPH,Wind Direction,Wind SpeedMPH,Gust SpeedMPH,PrecipitationIn,Events,Conditions,WindDirDegrees,DateUTC
12:53 AM,44.1,39.9,85,30.06,7.0,Calm,Calm,-,N/A,,Clear,0,2012-12-11 08:53:00
1:53 AM,44.1,39.9,85,30.06,7.0,Calm,Calm,-,N/A,,Clear,0,2012-12-11 09:53:00
2:53 AM,44.1,37.0,76,30.06,8.0,ENE,4.6,-,N/A,,Clear,60,2012-12-11 10:53:00
3:53 AM,43.0,37.0,80,30.06,7.0,Calm,Calm,-,N/A,,Clear,0,2012-12-11 11:53:00
4:53 AM,41.0,37.0,86,30.06,8.0,Calm,Calm,-,N/A,,Clear,0,2012-12-11 12:53:00
5:53 AM,41.0,37.0,86,30.06,7.0,ENE,3.5,-,N/A,,Clear,60,2012-12-11 13:53:00
6:53 AM,37.9,35.1,89,30.06,10.0,Calm,Calm,-,N/A,,Scattered Clouds,0,2012-12-11 14:53:00
7:53 AM,45.0,41.0,86,30.07,10.0,Calm,Calm,-,N/A,,Scattered Clouds,0,2012-12-11 15:53:00
8:53 AM,51.1,39.0,63,30.08,10.0,Calm,Calm,-,N/A,,Scattered Clouds,0,2012-12-11 16:53:00
9:53 AM,57.0,39.0,51,30.08,10.0,Calm,Calm,-,N/A,,Scattered Clouds,0,2012-12-11 17:53:00
10:53 AM,63.0,36.0,37,30.05,10.0,Calm,Calm,-,N/A,,Scattered Clouds,0,2012-12-11 18:53:00
11:53 AM,70.0,35.1,28,30.01,10.0,Calm,Calm,-,N/A,,Scattered Clouds,0,2012-12-11 19:53:00
12:53 PM,72.0,36.0,27,29.98,10.0,Variable,4.6,-,N/A,,Scattered Clouds,0,2012-12-11 20:53:00
1:53 PM,73.9,33.1,22,29.95,10.0,WSW,9.2,-,N/A,,Partly Cloudy,240,2012-12-11 21:53:00
2:53 PM,72.0,44.1,37,29.96,10.0,WSW,9.2,-,N/A,,Partly Cloudy,250,2012-12-11 22:53:00
3:53 PM,68.0,46.0,45,29.95,10.0,West,10.4,-,N/A,,Clear,260,2012-12-11 23:53:00
4:53 PM,60.1,48.0,64,29.96,10.0,West,8.1,-,N/A,,Clear,270,2012-12-12 00:53:00
5:53 PM,60.1,45.0,57,29.97,10.0,WNW,8.1,-,N/A,,Clear,290,2012-12-12 01:53:00
6:53 PM,55.9,46.0,69,29.99,10.0,West,6.9,-,N/A,,Clear,280,2012-12-12 02:53:00
7:53 PM,55.0,46.0,72,29.99,7.0,WNW,5.8,-,N/A,,Clear,290,2012-12-12 03:53:00
8:53 PM,50.0,45.0,83,30.00,5.0,WNW,3.5,-,N/A,,Haze,290,2012-12-12 04:53:00
9:53 PM,51.1,48.0,89,30.00,4.0,Calm,Calm,-,N/A,,Clear,0,2012-12-12 05:53:00
10:53 PM,48.9,46.9,93,30.00,3.0,Calm,Calm,-,N/A,,Clear,0,2012-12-12 06:53:00
11:01 PM,48.2,46.4,93,30.00,2.5,Calm,Calm,-,N/A,,Clear,0,2012-12-12 07:01:00
11:53 PM,46.9,45.0,93,29.99,2.0,Calm,Calm,-,N/A,,Clear,0,2012-12-12 07:53:00